Location: Basset
(45.3064°N, 4.1240°E)
Time: 00:45:44
(UTC+00:00)

Daily predictions for brighter satellites

Satellite Brightness Start Highest point End
(mag) Time Altitude Azimuth Time Altitude Azimuth Time Altitude Azimuth
Cosmos 2278 Rocket 4.5 00:36:49 20° NNE 00:36:49 20° NNE 00:38:28 10° NNE
USA 267 4.4 01:02:34 10° NE 01:08:08 37° N 01:08:08 37° N
CENTAUR R/B 4.4 01:12:29 20° E 01:12:29 20° E 01:15:51 10° ENE
Lacrosse 5 4.3 01:18:11 19° NE 01:18:11 19° NE 01:20:23 10° ENE
SL-16 R/B 3.9 01:24:47 31° NNW 01:24:47 31° NNW 01:27:47 10° NNW
ADEOS II 4.1 01:26:28 10° NE 01:29:29 23° ENE 01:29:29 23° ENE
USA 238 DEB 4.2 01:38:22 54° NE 01:38:22 54° NE 01:43:37 10° NE
USA 238 4.2 01:38:28 54° NE 01:38:28 54° NE 01:43:43 10° NE
BREEZE-M DEB (TANK) 4.2 01:48:42 56° E 01:48:42 56° E 01:58:58 10° ENE
Resurs 1-4 Rocket 3.7 01:42:38 10° NNE 01:45:11 30° N 01:45:11 30° N
Cosmos 2369 Rocket 3.4 01:52:51 38° ENE 01:52:51 38° ENE 01:56:54 10° NE
ARIANE 5 R/B 3.8 01:58:01 10° NNE 02:01:35 38° ENE 02:01:35 38° ENE
BREEZE-M DEB (TANK) 4.5 02:12:29 59° SW 02:14:45 73° SSE 02:20:10 10° ENE
Cosmos 2278 Rocket 4.3 02:18:40 16° NNW 02:18:40 16° NNW 02:21:17 10° N
NOSS 3-2 (A) 3.7 02:20:34 61° N 02:20:34 61° N 02:26:26 10° NE
ATLAS 3B R/B 2.6 02:21:10 70° ESE 02:21:10 70° ESE 02:27:44 10° NE
SME Rocket 4.4 02:14:53 10° NNE 02:20:14 50° NNW 02:20:14 50° NNW
NOSS 3-2 (C) 3.4 02:24:57 77° NNE 02:24:57 77° NNE 02:31:05 10° NE
Cosmos 1943 Rocket 2.4 02:31:09 63° N 02:31:09 63° N 02:35:50 10° NNE
CZ-2D R/B 3.6 02:25:33 10° N 02:28:18 26° NNW 02:28:18 26° NNW
ATLAS 5 CENTAUR R/B 4.2 02:41:54 12° NNW 02:42:54 13° NNW 02:45:09 10° N
Cosmos 1733 Rocket 4.4 02:40:21 10° N 02:44:33 39° ENE 02:46:46 23° SE
Iridium 4 Rocket 4.4 02:43:48 33° ESE 02:44:44 37° E 02:48:38 10° NNE
Cosmos 2344 3.5 02:44:31 57° W 02:45:58 69° NW 02:54:19 10° NE
Cosmos 44 3.3 02:53:57 74° ESE 02:53:57 74° ESE 02:58:37 10° NE
Cosmos 1782 4.4 02:55:54 28° N 02:55:54 28° N 02:57:56 10° N
IDEFIX/ARIANE 42P 4.1 02:49:27 10° NNE 02:54:11 32° E 02:58:46 10° SSE
Unknown 4.4 02:56:40 49° NNE 02:56:40 49° NNE 02:59:52 10° NE
Unknown 4.4 02:58:16 50° NNE 02:58:16 50° NNE 03:01:32 10° NE
Cosmos 1092 Rocket 3.9 02:56:51 46° S 02:58:48 84° E 03:05:00 10° N
BREEZE-M DEB (TANK) 4.5 02:44:28 10° W 02:59:00 65° N 03:03:04 10° E
Unknown 4.3 02:59:51 51° NNE 02:59:51 51° NNE 03:03:11 10° NE
Lacrosse 5 2.9 02:57:25 20° NNW 03:00:30 43° NNE 03:05:19 10° ESE
CENTAUR R/B 2.4 02:59:40 61° WSW 03:00:42 74° NW 03:07:49 10° NE
Unknown 4.3 03:01:28 52° NNE 03:01:28 52° NNE 03:04:52 10° NE
Unknown 4.2 03:04:39 53° NNE 03:04:39 53° NNE 03:08:11 10° NE
Unknown 4.4 03:05:31 46° N 03:05:31 46° N 03:08:54 10° NE
Spot 4 Rocket 4.1 03:00:04 10° N 03:04:57 59° WNW 03:04:57 59° WNW
Unknown 4.2 03:06:18 53° N 03:06:18 53° N 03:09:52 10° NE
Cosmos 2263 4.1 03:05:23 65° W 03:05:52 69° WNW 03:11:29 10° NNE
Cosmos 1400 Rocket 3.2 03:06:42 58° NNE 03:06:42 58° NNE 03:09:56 10° NNE
Unknown 4.1 03:07:51 53° N 03:07:51 53° N 03:11:30 10° NE
Unknown 4.1 03:09:23 54° N 03:09:23 54° N 03:13:06 10° NE
ADEOS II 2.5 03:05:41 10° N 03:10:25 45° WNW 03:10:25 45° WNW
Unknown 4.1 03:11:16 53° N 03:11:16 53° N 03:15:04 10° NE
Unknown 4.0 03:12:29 55° N 03:12:29 55° N 03:16:19 10° NE
SL-24 DEB 4.2 03:13:51 42° S 03:15:27 86° E 03:20:13 10° N
Unknown 4.0 03:15:40 54° NNW 03:15:40 54° NNW 03:19:38 10° NE
Meteor 1-5 Rocket 4.4 03:11:06 10° N 03:16:34 71° ENE 03:22:12 10° SSE
Nadezhda 4 Rocket 4.1 03:16:37 46° W 03:17:11 47° WNW 03:23:05 10° N
Unknown 4.0 03:17:16 53° NNW 03:17:16 53° NNW 03:21:18 10° NE
Unknown 4.1 03:17:48 49° NNW 03:17:48 49° NNW 03:21:46 10° NE
Unknown 4.1 03:19:03 49° NNW 03:19:07 49° NNW 03:23:09 10° NE
Unknown 4.0 03:20:27 51° NNW 03:20:34 51° NNW 03:24:38 10° NE
Unknown 4.0 03:22:04 50° NNW 03:22:14 50° NNW 03:26:18 10° NE
Cosmos 1627 Rocket 4.4 03:19:35 25° S 03:23:29 85° W 03:29:56 10° N
Cosmos 1656 Rocket 3.6 03:21:43 45° SW 03:23:32 81° WNW 03:29:13 10° NNE
Unknown 4.1 03:25:15 47° NW 03:25:34 48° NNW 03:29:36 10° NE
Resurs 1-4 Rocket 4.1 03:24:34 10° NNW 03:26:16 13° NW 03:26:16 13° NW
Unknown 4.1 03:26:50 46° NW 03:27:13 47° NNW 03:31:15 10° NE
CZ-2C R/B 3.5 03:23:26 10° N 03:26:29 40° NW 03:26:29 40° NW
Meteor 2-9 4.5 03:21:56 10° NNW 03:27:23 83° W 03:32:44 10° S
SeaSat 1 3.4 03:22:42 10° NE 03:27:25 43° ESE 03:31:17 15° S
Unknown 4.1 03:28:26 44° NW 03:28:53 47° NNW 03:32:55 10° NE
Cosmos 1346 Rocket 3.5 03:25:51 10° N 03:29:54 56° ENE 03:33:55 10° SSE
Unknown 4.1 03:30:03 43° NW 03:30:35 46° NNW 03:34:36 10° NE
Cosmos 1536 3.6 03:28:31 10° N 03:32:26 52° ENE 03:36:19 10° SSE
Unknown 4.2 03:33:15 40° NW 03:33:56 44° NNW 03:37:55 10° NE
H-2A R/B 3.1 03:30:20 10° NNE 03:34:03 48° E 03:36:58 16° S
Cosmos 2369 Rocket 3.0 03:34:40 30° WNW 03:35:41 32° NW 03:40:46 10° N
Unknown 4.4 03:35:07 36° NW 03:35:55 41° NNW 03:39:52 10° NE
Cosmos 2084 Rocket 3.3 03:33:51 17° NW 03:37:09 80° SW 03:41:29 10° SSE
Unknown 4.4 03:36:40 35° NW 03:37:33 40° NNW 03:41:29 10° NE
Unknown 4.3 03:36:46 37° NW 03:37:38 42° NNW 03:41:35 10° NE
Cosmos 2297 Rocket 4.4 03:35:31 10° N 03:40:16 27° NE 03:44:59 10° ESE
Unknown 4.4 03:39:37 35° NW 03:40:36 41° NNW 03:44:33 10° NE
ARIANE 5 R/B 3.7 03:37:42 10° N 03:41:46 24° WNW 03:41:55 24° WNW
Cosmos 1553 Rocket 4.0 03:36:33 10° N 03:42:51 85° E 03:49:00 10° S
Unknown 4.4 03:42:49 33° WNW 03:43:57 40° NNW 03:47:53 10° NE
Cosmos 1500 3.0 03:40:15 10° N 03:44:01 82° W 03:47:47 10° S
Cosmos 1862 Rocket 3.5 03:42:46 34° SSW 03:44:35 65° W 03:49:04 10° N
Cosmos 2242 Rocket 3.6 03:42:05 17° S 03:45:35 87° E 03:50:06 10° N
Unknown 4.5 03:44:25 32° WNW 03:45:37 40° NNW 03:49:33 10° NE
Unknown 4.5 03:46:01 30° WNW 03:47:17 39° NNW 03:51:13 10° NE
Spot 2 4.2 03:46:13 10° N 03:50:43 57° WNW 03:52:37 31° SW
ADEOS 3.5 03:47:01 10° N 03:52:15 73° WNW 03:56:33 15° SSW
MSX 4.1 03:46:48 10° NNE 03:52:34 70° ESE 03:58:16 10° S
Okean 1-7 4.1 03:49:15 10° SSE 03:53:27 46° E 03:57:40 10° NNE
Cosmos 2026 Rocket 4.1 03:51:22 19° SSW 03:55:52 54° WNW 04:02:07 10° N
USA 215 4.1 03:51:25 10° ENE 03:57:38 44° SE 04:03:49 10° SSW
Cosmos 1417 Rocket 4.5 03:53:10 10° NNW 03:59:31 76° W 04:05:51 10° S
CZ-4B R/B 4.3 03:55:24 10° NNE 03:59:45 44° E 04:04:01 10° S
Aureole 2 Rocket 2.1 04:01:02 44° NW 04:01:02 44° NW 04:03:27 10° N
OPS 6432 4.3 03:59:58 36° WSW 04:01:10 67° NW 04:04:15 10° NNE
PSLV R/B 4.2 03:59:55 10° S 04:03:53 45° W 04:07:52 10° NNW
Timation 2 Rocket 4.1 04:01:31 10° NW 04:07:11 44° WSW 04:12:47 10° S
Meteor 1-27 Rocket 3.8 04:04:29 10° SSW 04:10:17 60° WNW 04:16:00 10° N
Atlas Centaur 2 4.3 04:08:54 13° SW 04:11:12 15° SSW 04:15:01 10° SSE
ATLAS 5 CENTAUR R/B 3.9 04:10:16 10° NW 04:12:13 15° N 04:15:19 10° NE
SL-4 R/B 2.7 04:12:02 24° SW 04:12:17 25° SW 04:15:17 10° SSE
ATLAS 3B R/B 3.5 04:08:25 18° W 04:12:22 33° NW 04:18:15 10° NNE
Cosmos 1812 3.2 04:10:46 23° SW 04:12:38 38° WNW 04:16:17 10° N
Cosmos 1908 Rocket 3.5 04:10:10 10° NNW 04:14:27 60° W 04:18:43 10° S
Cosmos 1743 4.3 04:10:47 10° N 04:14:30 39° ENE 04:18:10 10° SSE
Cosmos 1943 Rocket 3.9 04:12:41 14° WNW 04:14:54 17° NW 04:18:25 10° N
Gbstr 26 Del rocket 4.5 04:09:50 10° WNW 04:18:03 82° SSW 04:25:36 10° SE
PSLV R/B 4.1 04:14:28 10° N 04:18:33 39° WNW 04:21:52 14° SW
Cosmos 44 Rocket 3.3 04:15:04 14° SW 04:19:24 78° NW 04:24:20 10° NNE
Cosmos 1733 Rocket 4.3 04:18:44 10° NW 04:22:04 21° W 04:23:43 17° WSW
Cosmos 1655 Rocket 4.0 04:16:38 10° SSW 04:22:48 65° W 04:29:04 10° N
Cosmos 773 Rocket 4.4 04:20:33 15° SW 04:24:35 43° WNW 04:29:30 10° N
Iridium 4 Rocket 4.4 04:23:38 18° W 04:24:50 20° WNW 04:27:58 10° NNW
S3M 4.0 04:19:26 10° NNW 04:25:32 60° W 04:31:39 10° S
Meteor 1-11 Rocket 4.2 04:20:57 10° NNW 04:25:57 35° W 04:30:54 10° SSW
Cosmos 1315 Rocket 3.6 04:23:58 14° SW 04:26:59 33° WNW 04:30:46 10° N
CZ-4B R/B 3.7 04:24:08 10° NNE 04:27:50 84° ESE 04:31:28 10° SSW
ATLAS CENTAUR R/B 3.3 04:26:41 10° NNW 04:30:46 32° NE 04:34:33 10° ESE
USA 267 4.0 04:26:20 10° E 04:32:38 53° NNE 04:38:57 10° NW
Meteor PRIRODA 4.1 04:29:17 10° NNE 04:32:58 64° ESE 04:36:39 10° S
IDEFIX/ARIANE 42P 3.2 04:28:59 10° N 04:33:47 36° WNW 04:38:34 10° SW
Okean O Rocket 3.8 04:31:28 10° NE 04:35:25 30° E 04:39:20 10° SSE
Cosmos 1666 2.9 04:35:01 10° NNW 04:38:37 46° W 04:42:14 10° SSW
Cosmos 1340 3.8 04:37:50 10° NW 04:40:48 22° W 04:43:46 10° SW
CZ-2C R/B 2.4 04:36:10 10° N 04:41:03 66° WNW 04:46:03 10° SSW
Lacrosse 5 2.2 04:38:42 10° WNW 04:43:32 46° SW 04:48:19 10° SSE
Meteor 1-31 Rocket 2.9 04:44:11 10° N 04:48:01 54° WNW 04:51:48 10° SSW
PSLV R/B 3.9 04:44:39 10° NNE 04:48:42 89° ESE 04:52:37 10° SSW
CENTAUR R/B 4.0 04:47:22 10° WNW 04:52:44 26° NNW 04:58:46 10° NNE
Cosmos 1680 Rocket 3.5 04:47:45 10° SSW 04:53:01 87° WNW 04:58:17 10° NNE
Cosmos 923 Rocket 4.1 04:48:48 10° SSW 04:54:07 67° WNW 04:59:27 10° NNE
Unknown 3.4 04:51:36 10° NW 04:54:49 61° NNE 04:58:00 10° ESE
Cosmos 1300 Rocket 4.2 04:50:40 10° N 04:55:00 62° E 04:59:21 10° SSE
Okean 1 3.3 04:52:01 10° SSW 04:55:56 67° W 04:59:55 10° N
Shenzhou-11 Module 3.7 04:54:27 10° SW 04:56:41 22° SSE 04:58:56 10° ESE
CZ-4B R/B 4.4 04:51:27 10° NNE 04:56:48 49° E 05:02:01 10° S
Cosmos 1782 Rocket 4.1 04:53:20 10° NNW 04:57:22 37° W 05:01:25 10° SSW
Okean 3 3.9 04:53:25 10° S 04:57:34 68° E 05:01:46 10° NNE
SKYMED 2 3.6 04:55:04 10° SSE 04:59:24 86° WSW 05:03:47 10° NNW
Cosmos 2266 Rocket 4.2 04:57:28 10° SSW 05:03:19 48° WNW 05:09:09 10° N
